Time,TemperatureF,DewpointF,PressureIn,WindDirection,WindDirectionDegrees,WindSpeedMPH,WindSpeedGustMPH,Humidity,HourlyPrecipIn,Conditions,Clouds,dailyrainin,SoftwareType,DateUTC
2013-09-04 00:01:00,62.6,50.7,28.91,WSW,258,0.0,0.0,65,0.00,,FEW250,0.00,VWS V14.00,2013-09-04 05:01:00,
2013-09-04 00:06:00,62.4,50.9,28.91,WSW,258,0.0,0.0,66,0.00,,FEW250,0.00,VWS V14.00,2013-09-04 05:06:00,
2013-09-04 00:11:00,62.2,50.8,28.91,WSW,258,0.0,0.0,66,0.00,,FEW250,0.00,VWS V14.00,2013-09-04 05:11:00,
2013-09-04 00:16:00,62.2,50.3,28.91,WSW,258,0.0,0.0,65,0.00,,FEW250,0.00,VWS V14.00,2013-09-04 05:16:00,
2013-09-04 00:21:00,62.2,50.3,28.91,WSW,258,0.0,0.0,65,0.00,,FEW250,0.00,VWS V14.00,2013-09-04 05:21:00,
2013-09-04 00:26:00,62.2,50.8,28.94,WSW,258,0.0,0.0,66,0.00,,FEW250,0.00,VWS V14.00,2013-09-04 05:26:00,
2013-09-04 00:31:00,62.1,50.2,28.94,WSW,258,0.0,0.0,65,0.00,,FEW250,0.00,VWS V14.00,2013-09-04 05:31:00,
2013-09-04 00:36:00,62.1,50.2,28.94,WSW,258,0.0,0.0,65,0.00,,FEW250,0.00,VWS V14.00,2013-09-04 05:36:00,
2013-09-04 00:41:00,62.1,50.6,28.94,WSW,258,0.0,0.0,66,0.00,,FEW250,0.00,VWS V14.00,2013-09-04 05:41:00,
2013-09-04 00:46:00,62.2,50.8,28.94,WSW,258,0.0,0.0,66,0.00,,FEW250,0.00,VWS V14.00,2013-09-04 05:46:00,
2013-09-04 00:51:00,62.2,50.8,28.94,WSW,258,0.0,0.0,66,0.00,,FEW250,0.00,VWS V14.00,2013-09-04 05:51:00,
2013-09-04 00:56:00,62.1,50.6,28.94,WSW,258,0.0,0.0,66,0.00,,FEW250,0.00,VWS V14.00,2013-09-04 05:56:00,
2013-09-04 01:01:00,61.9,50.0,28.94,WSW,258,0.0,0.0,65,0.00,,CLR,0.00,VWS V14.00,2013-09-04 06:01:00,
2013-09-04 01:06:00,61.7,49.8,28.94,WSW,258,0.0,0.0,65,0.00,,CLR,0.00,VWS V14.00,2013-09-04 06:06:00,
2013-09-04 01:11:00,61.7,49.8,28.94,WSW,258,0.0,0.0,65,0.00,,CLR,0.00,VWS V14.00,2013-09-04 06:11:00,
2013-09-04 01:16:00,61.5,49.2,28.94,WSW,258,0.0,0.0,64,0.00,,CLR,0.00,VWS V14.00,2013-09-04 06:16:00,
2013-09-04 01:21:00,61.7,49.4,28.94,WSW,258,0.0,0.0,64,0.00,,CLR,0.00,VWS V14.00,2013-09-04 06:21:00,
2013-09-04 01:26:00,61.5,49.2,28.94,WSW,258,0.0,0.0,64,0.00,,CLR,0.00,VWS V14.00,2013-09-04 06:26:00,
2013-09-04 01:31:00,61.3,49.1,28.94,WSW,258,0.0,0.0,64,0.00,,CLR,0.00,VWS V14.00,2013-09-04 06:31:00,
2013-09-04 01:36:00,61.3,48.7,28.94,WSW,258,0.0,0.0,63,0.00,,CLR,0.00,VWS V14.00,2013-09-04 06:36:00,
2013-09-04 01:41:00,61.2,48.9,28.94,WSW,258,0.0,0.0,64,0.00,,CLR,0.00,VWS V14.00,2013-09-04 06:41:00,
2013-09-04 01:46:00,61.0,48.3,28.94,WSW,258,0.0,0.0,63,0.00,,CLR,0.00,VWS V14.00,2013-09-04 06:46:00,
2013-09-04 01:51:00,61.0,48.7,28.94,WSW,258,0.0,0.0,64,0.00,,CLR,0.00,VWS V14.00,2013-09-04 06:51:00,
2013-09-04 01:56:00,60.6,48.4,28.94,WSW,258,0.0,0.0,64,0.00,,CLR,0.00,VWS V14.00,2013-09-04 06:56:00,
2013-09-04 02:01:00,60.4,48.2,28.94,WSW,258,0.0,0.0,64,0.00,,CLR,0.00,VWS V14.00,2013-09-04 07:01:00,
2013-09-04 02:06:00,60.3,48.0,28.94,WSW,258,0.0,0.0,64,0.00,,CLR,0.00,VWS V14.00,2013-09-04 07:06:00,
2013-09-04 02:11:00,60.1,47.9,28.94,WSW,258,0.0,0.0,64,0.00,,CLR,0.00,VWS V14.00,2013-09-04 07:11:00,
2013-09-04 02:16:00,59.9,48.1,28.94,WSW,258,0.0,0.0,65,0.00,,CLR,0.00,VWS V14.00,2013-09-04 07:16:00,
2013-09-04 02:21:00,59.9,48.1,28.94,WSW,258,0.0,0.0,65,0.00,,CLR,0.00,VWS V14.00,2013-09-04 07:21:00,
2013-09-04 02:26:00,59.9,48.5,28.94,WSW,258,0.0,0.0,66,0.00,,CLR,0.00,VWS V14.00,2013-09-04 07:26:00,
2013-09-04 02:31:00,60.1,49.1,28.94,WSW,258,0.0,0.0,67,0.00,,CLR,0.00,VWS V14.00,2013-09-04 07:31:00,
2013-09-04 02:36:00,60.1,49.1,28.94,WSW,258,0.0,0.0,67,0.00,,CLR,0.00,VWS V14.00,2013-09-04 07:36:00,
2013-09-04 02:41:00,59.9,49.3,28.94,WSW,258,0.0,0.0,68,0.00,,CLR,0.00,VWS V14.00,2013-09-04 07:41:00,
2013-09-04 02:46:00,59.9,50.1,28.94,WSW,258,0.0,0.0,70,0.00,,CLR,0.00,VWS V14.00,2013-09-04 07:46:00,
2013-09-04 02:51:00,59.7,49.5,28.94,WSW,258,0.0,0.0,69,0.00,,CLR,0.00,VWS V14.00,2013-09-04 07:51:00,
2013-09-04 02:56:00,59.5,49.8,28.94,WSW,258,0.0,0.0,70,0.00,,CLR,0.00,VWS V14.00,2013-09-04 07:56:00,
2013-09-04 03:01:00,59.7,49.9,28.94,WSW,258,0.0,0.0,70,0.00,,CLR,0.00,VWS V14.00,2013-09-04 08:01:00,
2013-09-04 03:06:00,59.7,49.9,28.94,WSW,258,0.0,0.0,70,0.00,,CLR,0.00,VWS V14.00,2013-09-04 08:06:00,
2013-09-04 03:11:00,59.7,50.3,28.97,WSW,258,0.0,0.0,71,0.00,,CLR,0.00,VWS V14.00,2013-09-04 08:11:00,
2013-09-04 03:16:00,59.5,50.1,28.97,WSW,258,0.0,0.0,71,0.00,,CLR,0.00,VWS V14.00,2013-09-04 08:16:00,
2013-09-04 03:21:00,59.5,50.1,28.97,WSW,258,0.0,0.0,71,0.00,,CLR,0.00,VWS V14.00,2013-09-04 08:21:00,
2013-09-04 03:26:00,59.5,50.5,28.97,WSW,258,0.0,0.0,72,0.00,,CLR,0.00,VWS V14.00,2013-09-04 08:26:00,
2013-09-04 03:31:00,59.7,50.3,28.97,WSW,258,0.0,0.0,71,0.00,,CLR,0.00,VWS V14.00,2013-09-04 08:31:00,
2013-09-04 03:36:00,59.5,50.5,28.97,WSW,258,0.0,0.0,72,0.00,,CLR,0.00,VWS V14.00,2013-09-04 08:36:00,
2013-09-04 03:41:00,59.5,50.5,28.97,WSW,258,0.0,0.0,72,0.00,,CLR,0.00,VWS V14.00,2013-09-04 08:41:00,
2013-09-04 03:46:00,59.4,50.3,28.97,WSW,258,0.0,0.0,72,0.00,,CLR,0.00,VWS V14.00,2013-09-04 08:46:00,
2013-09-04 03:51:00,59.4,50.3,28.97,WSW,258,0.0,0.0,72,0.00,,CLR,0.00,VWS V14.00,2013-09-04 08:51:00,
2013-09-04 03:56:00,59.4,50.3,28.97,WSW,258,0.0,0.0,72,0.00,,CLR,0.00,VWS V14.00,2013-09-04 08:56:00,
2013-09-04 04:01:00,59.2,50.2,28.97,WSW,258,0.0,0.0,72,0.00,,CLR,0.00,VWS V14.00,2013-09-04 09:01:00,
2013-09-04 04:06:00,59.2,50.5,28.97,WSW,258,0.0,0.0,73,0.00,,CLR,0.00,VWS V14.00,2013-09-04 09:06:00,
2013-09-04 04:11:00,59.0,50.0,28.97,WSW,258,0.0,0.0,72,0.00,,CLR,0.00,VWS V14.00,2013-09-04 09:11:00,
2013-09-04 04:16:00,58.8,50.2,28.97,WSW,258,0.0,0.0,73,0.00,,CLR,0.00,VWS V14.00,2013-09-04 09:16:00,
2013-09-04 04:21:00,58.8,50.2,28.97,WSW,258,0.0,0.0,73,0.00,,CLR,0.00,VWS V14.00,2013-09-04 09:21:00,
2013-09-04 04:26:00,58.8,50.2,28.97,WSW,258,0.0,0.0,73,0.00,,CLR,0.00,VWS V14.00,2013-09-04 09:26:00,
2013-09-04 04:31:00,58.8,50.2,28.97,WSW,258,0.0,0.0,73,0.00,,CLR,0.00,VWS V14.00,2013-09-04 09:31:00,
2013-09-04 04:36:00,58.8,50.2,28.97,WSW,258,0.0,0.0,73,0.00,,CLR,0.00,VWS V14.00,2013-09-04 09:36:00,
2013-09-04 04:41:00,58.6,50.4,28.97,WSW,258,0.0,0.0,74,0.00,,CLR,0.00,VWS V14.00,2013-09-04 09:41:00,
2013-09-04 04:46:00,58.5,50.2,28.97,WSW,258,0.0,0.0,74,0.00,,CLR,0.00,VWS V14.00,2013-09-04 09:46:00,
2013-09-04 04:51:00,58.6,50.0,28.97,WSW,258,0.0,0.0,73,0.00,,CLR,0.00,VWS V14.00,2013-09-04 09:51:00,
2013-09-04 04:56:00,58.6,50.8,28.97,WSW,258,0.0,0.0,75,0.00,,CLR,0.00,VWS V14.00,2013-09-04 09:56:00,
2013-09-04 05:01:00,58.8,50.6,28.97,WSW,258,0.0,0.0,74,0.00,,CLR,0.00,VWS V14.00,2013-09-04 10:01:00,
2013-09-04 05:06:00,58.8,50.9,28.97,WSW,258,0.0,0.0,75,0.00,,CLR,0.00,VWS V14.00,2013-09-04 10:06:00,
2013-09-04 05:11:00,58.8,50.9,28.97,WSW,258,0.0,0.0,75,0.00,,CLR,0.00,VWS V14.00,2013-09-04 10:11:00,
2013-09-04 05:16:00,58.5,50.9,28.97,WSW,258,0.0,0.0,76,0.00,,CLR,0.00,VWS V14.00,2013-09-04 10:16:00,
2013-09-04 05:21:00,58.5,50.9,28.97,WSW,258,0.0,0.0,76,0.00,,CLR,0.00,VWS V14.00,2013-09-04 10:21:00,
2013-09-04 05:26:00,58.3,50.8,28.97,WSW,258,0.0,0.0,76,0.00,,CLR,0.00,VWS V14.00,2013-09-04 10:26:00,
2013-09-04 05:31:00,58.1,50.9,28.97,WSW,258,0.0,0.0,77,0.00,,CLR,0.00,VWS V14.00,2013-09-04 10:31:00,
2013-09-04 05:36:00,57.9,50.4,28.97,WSW,258,0.0,0.0,76,0.00,,CLR,0.00,VWS V14.00,2013-09-04 10:36:00,
2013-09-04 05:41:00,57.9,50.4,28.97,WSW,258,0.0,0.0,76,0.00,,CLR,0.00,VWS V14.00,2013-09-04 10:41:00,
2013-09-04 05:46:00,57.9,50.8,28.97,WSW,258,0.0,0.0,77,0.00,,CLR,0.00,VWS V14.00,2013-09-04 10:46:00,
2013-09-04 05:51:00,57.7,50.9,28.97,WSW,258,0.0,0.0,78,0.00,,CLR,0.00,VWS V14.00,2013-09-04 10:51:00,
2013-09-04 05:56:00,57.7,50.9,28.97,WSW,258,0.0,0.0,78,0.00,,CLR,0.00,VWS V14.00,2013-09-04 10:56:00,
2013-09-04 06:01:00,57.7,50.9,28.97,WSW,258,0.0,0.0,78,0.00,,FEW220,0.00,VWS V14.00,2013-09-04 11:01:00,
2013-09-04 06:06:00,57.6,51.1,28.97,WSW,258,0.0,0.0,79,0.00,,FEW220,0.00,VWS V14.00,2013-09-04 11:06:00,
2013-09-04 06:11:00,57.6,51.1,28.97,WSW,258,0.0,0.0,79,0.00,,FEW220,0.00,VWS V14.00,2013-09-04 11:11:00,
2013-09-04 06:16:00,57.6,51.5,28.97,WSW,258,0.0,0.0,80,0.00,,FEW220,0.00,VWS V14.00,2013-09-04 11:16:00,
2013-09-04 06:21:00,57.6,51.1,28.97,WSW,258,0.0,0.0,79,0.00,,FEW220,0.00,VWS V14.00,2013-09-04 11:21:00,
2013-09-04 06:26:00,57.4,50.9,28.97,WSW,258,0.0,0.0,79,0.00,,FEW220,0.00,VWS V14.00,2013-09-04 11:26:00,
2013-09-04 06:31:00,57.4,51.3,28.97,WSW,258,0.0,0.0,80,0.00,,FEW220,0.00,VWS V14.00,2013-09-04 11:31:00,
2013-09-04 06:36:00,57.6,51.5,28.97,WSW,258,0.0,0.0,80,0.00,,FEW220,0.00,VWS V14.00,2013-09-04 11:36:00,
2013-09-04 06:41:00,57.9,51.8,28.97,WSW,258,0.0,0.0,80,0.00,,FEW220,0.00,VWS V14.00,2013-09-04 11:41:00,
2013-09-04 06:46:00,57.9,51.8,28.97,WSW,258,0.0,0.0,80,0.00,,FEW220,0.00,VWS V14.00,2013-09-04 11:46:00,
2013-09-04 06:51:00,57.7,52.0,28.97,WSW,258,0.0,0.0,81,0.00,,FEW220,0.00,VWS V14.00,2013-09-04 11:51:00,
2013-09-04 06:56:00,57.7,52.0,29.00,WSW,258,0.0,0.0,81,0.00,,FEW220,0.00,VWS V14.00,2013-09-04 11:56:00,
2013-09-04 07:01:00,57.7,52.0,29.00,WSW,258,0.0,0.0,81,0.00,,FEW300,0.00,VWS V14.00,2013-09-04 12:01:00,
2013-09-04 07:06:00,57.9,52.5,29.00,WSW,258,0.0,0.0,82,0.00,,FEW300,0.00,VWS V14.00,2013-09-04 12:06:00,
2013-09-04 07:11:00,57.9,52.5,29.00,WSW,258,0.0,0.0,82,0.00,,FEW300,0.00,VWS V14.00,2013-09-04 12:11:00,
2013-09-04 07:16:00,58.3,52.8,29.00,WSW,258,0.0,0.0,82,0.00,,FEW300,0.00,VWS V14.00,2013-09-04 12:16:00,
2013-09-04 07:21:00,58.6,53.5,29.00,WSW,258,0.0,0.0,83,0.00,,FEW300,0.00,VWS V14.00,2013-09-04 12:21:00,
2013-09-04 07:26:00,59.2,54.0,29.00,WSW,258,0.0,0.0,83,0.00,,FEW300,0.00,VWS V14.00,2013-09-04 12:26:00,
2013-09-04 07:31:00,59.4,54.2,29.00,WSW,258,0.0,0.0,83,0.00,,FEW300,0.00,VWS V14.00,2013-09-04 12:31:00,
2013-09-04 07:36:00,59.9,54.7,29.00,WSW,258,0.0,0.0,83,0.00,,FEW300,0.00,VWS V14.00,2013-09-04 12:36:00,
2013-09-04 07:41:00,60.3,55.1,29.00,WSW,258,0.0,0.0,83,0.00,,FEW300,0.00,VWS V14.00,2013-09-04 12:41:00,
2013-09-04 07:46:00,60.6,55.4,29.00,WSW,258,0.0,0.0,83,0.00,,FEW300,0.00,VWS V14.00,2013-09-04 12:46:00,
2013-09-04 07:51:00,61.2,56.0,29.00,WSW,258,0.0,0.0,83,0.00,,FEW300,0.00,VWS V14.00,2013-09-04 12:51:00,
2013-09-04 07:56:00,61.9,56.7,29.00,WSW,258,0.0,0.0,83,0.00,,FEW300,0.00,VWS V14.00,2013-09-04 12:56:00,
2013-09-04 08:01:00,62.8,57.5,29.00,WSW,258,0.0,0.0,83,0.00,,FEW300,0.00,VWS V14.00,2013-09-04 13:01:00,
2013-09-04 08:06:00,63.5,58.6,29.00,WSW,258,0.0,0.0,84,0.00,,FEW300,0.00,VWS V14.00,2013-09-04 13:06:00,
2013-09-04 08:11:00,65.8,61.9,29.00,WSW,258,0.0,0.0,87,0.00,,FEW300,0.00,VWS V14.00,2013-09-04 13:11:00,
2013-09-04 08:16:00,68.9,65.5,29.00,WSW,258,0.0,0.0,89,0.00,,FEW300,0.00,VWS V14.00,2013-09-04 13:16:00,
2013-09-04 08:21:00,71.6,66.2,29.00,SSE,158,0.0,0.0,83,0.00,,FEW300,0.00,VWS V14.00,2013-09-04 13:21:00,
2013-09-04 08:26:00,73.8,59.0,29.00,SSE,158,0.0,0.0,60,0.00,,FEW300,0.00,VWS V14.00,2013-09-04 13:26:00,
2013-09-04 08:31:00,76.1,52.0,29.00,SSE,158,0.0,0.0,43,0.00,,FEW300,0.00,VWS V14.00,2013-09-04 13:31:00,
2013-09-04 08:36:00,78.3,46.8,29.00,SSE,158,0.0,0.0,33,0.00,,FEW300,0.00,VWS V14.00,2013-09-04 13:36:00,
2013-09-04 08:41:00,79.7,45.6,29.00,SSE,155,0.0,0.0,30,0.00,,FEW300,0.00,VWS V14.00,2013-09-04 13:41:00,
2013-09-04 08:46:00,80.8,40.7,29.00,SSE,155,0.0,0.0,24,0.00,,FEW300,0.00,VWS V14.00,2013-09-04 13:46:00,
2013-09-04 08:51:00,81.9,38.1,29.00,SSE,155,0.0,0.0,21,0.00,,FEW300,0.00,VWS V14.00,2013-09-04 13:51:00,
2013-09-04 08:56:00,82.4,36.0,29.00,SSE,148,0.0,0.0,19,0.00,,FEW300,0.00,VWS V14.00,2013-09-04 13:56:00,
2013-09-04 09:01:00,81.9,35.6,29.00,SE,146,0.0,0.0,19,0.00,,BKN300,0.00,VWS V14.00,2013-09-04 14:01:00,
2013-09-04 09:06:00,82.6,36.2,29.00,SE,146,0.0,0.0,19,0.00,,BKN300,0.00,VWS V14.00,2013-09-04 14:06:00,
2013-09-04 09:11:00,84.2,33.2,29.03,SE,136,0.0,0.0,16,0.00,,BKN300,0.00,VWS V14.00,2013-09-04 14:11:00,
2013-09-04 09:16:00,84.9,33.8,29.03,SE,126,0.0,4.0,16,0.00,,BKN300,0.00,VWS V14.00,2013-09-04 14:16:00,
2013-09-04 09:21:00,85.3,34.1,29.03,SE,126,0.0,0.0,16,0.00,,BKN300,0.00,VWS V14.00,2013-09-04 14:21:00,
2013-09-04 09:26:00,86.2,34.8,29.03,SE,127,0.0,2.2,16,0.00,,BKN300,0.00,VWS V14.00,2013-09-04 14:26:00,
2013-09-04 09:31:00,87.6,30.8,29.03,SE,127,0.0,0.0,13,0.00,,BKN300,0.00,VWS V14.00,2013-09-04 14:31:00,
2013-09-04 09:36:00,88.7,31.6,29.03,SE,127,0.0,0.0,13,0.00,,BKN300,0.00,VWS V14.00,2013-09-04 14:36:00,
2013-09-04 09:40:00,88.7,31.6,29.03,SE,127,0.0,0.0,13,0.00,,BKN300,0.00,VWS V14.00,2013-09-04 14:40:00,
2013-09-04 09:45:00,89.6,30.3,29.03,SE,127,0.0,0.0,12,0.00,,BKN300,0.00,VWS V14.00,2013-09-04 14:45:00,
2013-09-04 09:50:00,90.9,31.3,29.03,SE,127,0.0,0.0,12,0.00,,BKN300,0.00,VWS V14.00,2013-09-04 14:50:00,
2013-09-04 09:55:00,91.2,31.6,29.03,East,97,0.0,0.0,12,0.00,,BKN300,0.00,VWS V14.00,2013-09-04 14:55:00,
2013-09-04 10:00:00,90.7,31.2,29.03,SE,124,2.2,2.7,12,0.00,,OVC300,0.00,VWS V14.00,2013-09-04 15:00:00,
2013-09-04 10:05:00,90.0,30.6,29.03,South,186,0.0,3.1,12,0.00,,OVC300,0.00,VWS V14.00,2013-09-04 15:05:00,
2013-09-04 10:10:00,91.4,31.7,29.03,SSW,204,0.0,0.0,12,0.00,,OVC300,0.00,VWS V14.00,2013-09-04 15:10:00,
2013-09-04 10:15:00,91.6,31.9,29.03,ESE,119,0.0,0.0,12,0.00,,OVC300,0.00,VWS V14.00,2013-09-04 15:15:00,
2013-09-04 10:20:00,91.9,32.1,29.03,SE,135,3.1,3.1,12,0.00,,OVC300,0.00,VWS V14.00,2013-09-04 15:20:00,
2013-09-04 10:25:00,92.1,32.3,29.03,South,181,0.0,3.1,12,0.00,,OVC300,0.00,VWS V14.00,2013-09-04 15:25:00,
2013-09-04 10:30:00,93.0,33.0,29.03,SW,223,2.7,2.7,12,0.00,,OVC300,0.00,VWS V14.00,2013-09-04 15:30:00,
2013-09-04 10:35:00,92.7,32.7,29.03,SE,140,2.7,3.6,12,0.00,,OVC300,0.00,VWS V14.00,2013-09-04 15:35:00,
2013-09-04 10:40:00,92.5,32.5,29.03,SE,134,2.2,3.1,12,0.00,,OVC300,0.00,VWS V14.00,2013-09-04 15:40:00,
2013-09-04 10:45:00,93.0,33.0,29.03,SE,130,2.2,3.6,12,0.00,,OVC300,0.00,VWS V14.00,2013-09-04 15:45:00,
2013-09-04 10:50:00,89.6,30.3,29.03,South,183,5.8,7.2,12,0.00,,OVC300,0.00,VWS V14.00,2013-09-04 15:50:00,
2013-09-04 10:55:00,92.1,32.3,29.03,SE,125,3.6,7.2,12,0.00,,OVC300,0.00,VWS V14.00,2013-09-04 15:55:00,
2013-09-04 11:00:00,91.8,32.0,29.03,SSW,192,3.1,3.1,12,0.00,,OVC300,0.00,VWS V14.00,2013-09-04 16:00:00,
2013-09-04 11:05:00,92.1,32.3,29.03,SE,133,3.1,5.4,12,0.00,,OVC300,0.00,VWS V14.00,2013-09-04 16:05:00,
2013-09-04 11:10:00,93.7,31.4,29.03,South,172,0.0,3.6,11,0.00,,OVC300,0.00,VWS V14.00,2013-09-04 16:10:00,
2013-09-04 11:15:00,94.6,32.0,29.03,SE,132,3.1,4.0,11,0.00,,OVC300,0.00,VWS V14.00,2013-09-04 16:15:00,
2013-09-04 11:20:00,94.8,32.2,29.03,SE,144,0.0,4.9,11,0.00,,OVC300,0.00,VWS V14.00,2013-09-04 16:20:00,
2013-09-04 11:25:00,95.5,32.7,29.03,ESE,120,2.2,4.9,11,0.00,,OVC300,0.00,VWS V14.00,2013-09-04 16:25:00,
2013-09-04 11:30:00,96.1,33.2,29.03,South,182,0.0,2.2,11,0.00,,OVC300,0.00,VWS V14.00,2013-09-04 16:30:00,
2013-09-04 11:35:00,96.4,33.4,29.03,SE,137,3.6,5.8,11,0.00,,OVC300,0.00,VWS V14.00,2013-09-04 16:35:00,
2013-09-04 11:40:00,96.4,33.4,29.03,SE,130,4.5,4.5,11,0.00,,OVC300,0.00,VWS V14.00,2013-09-04 16:40:00,
2013-09-04 11:45:00,96.1,33.2,29.03,ESE,102,0.0,5.8,11,0.00,,OVC300,0.00,VWS V14.00,2013-09-04 16:45:00,
2013-09-04 11:50:00,96.4,33.4,29.03,SE,146,3.1,4.0,11,0.00,,OVC300,0.00,VWS V14.00,2013-09-04 16:50:00,
2013-09-04 11:55:00,97.2,34.0,29.03,SW,220,0.0,4.0,11,0.00,,OVC300,0.00,VWS V14.00,2013-09-04 16:55:00,
2013-09-04 12:00:00,97.9,34.5,29.03,SE,140,4.9,4.9,11,0.00,,OVC300,0.00,VWS V14.00,2013-09-04 17:00:00,
2013-09-04 12:05:00,97.5,34.2,29.03,WSW,258,0.0,4.9,11,0.00,,OVC300,0.00,VWS V14.00,2013-09-04 17:05:00,
2013-09-04 12:10:00,97.0,33.8,29.03,ESE,123,3.1,3.1,11,0.00,,OVC300,0.00,VWS V14.00,2013-09-04 17:10:00,
2013-09-04 12:15:00,95.9,33.0,29.03,SE,137,4.0,4.9,11,0.00,,OVC300,0.00,VWS V14.00,2013-09-04 17:15:00,
2013-09-04 12:20:00,95.2,32.5,29.03,SE,130,0.0,3.1,11,0.00,,OVC300,0.00,VWS V14.00,2013-09-04 17:20:00,
2013-09-04 12:25:00,94.5,31.9,29.03,SE,133,3.6,4.9,11,0.00,,OVC300,0.00,VWS V14.00,2013-09-04 17:25:00,
2013-09-04 12:30:00,93.6,31.2,29.03,SE,133,3.1,3.1,11,0.00,,OVC300,0.00,VWS V14.00,2013-09-04 17:30:00,
2013-09-04 12:35:00,93.4,31.1,29.03,SW,230,0.0,4.0,11,0.00,,OVC300,0.00,VWS V14.00,2013-09-04 17:35:00,
2013-09-04 12:40:00,92.3,32.4,29.03,NE,47,0.0,4.0,12,0.00,,OVC300,0.00,VWS V14.00,2013-09-04 17:40:00,
2013-09-04 12:45:00,92.1,32.3,29.00,ENE,73,0.0,4.0,12,0.00,,OVC300,0.00,VWS V14.00,2013-09-04 17:45:00,
2013-09-04 12:50:00,90.9,31.3,29.00,SSW,207,0.0,0.0,12,0.00,,OVC300,0.00,VWS V14.00,2013-09-04 17:50:00,
2013-09-04 12:55:00,90.5,31.0,29.00,South,175,2.2,5.4,12,0.00,,OVC300,0.00,VWS V14.00,2013-09-04 17:55:00,
2013-09-04 13:00:00,91.9,32.1,29.00,SE,130,4.9,4.9,12,0.00,,BKN300,0.00,VWS V14.00,2013-09-04 18:00:00,
2013-09-04 13:05:00,93.6,31.2,29.00,South,182,0.0,4.9,11,0.00,,BKN300,0.00,VWS V14.00,2013-09-04 18:05:00,
2013-09-04 13:10:00,94.8,32.2,29.00,SE,129,2.7,3.1,11,0.00,,BKN300,0.00,VWS V14.00,2013-09-04 18:10:00,
2013-09-04 13:15:00,97.9,34.5,29.00,NE,45,0.0,3.6,11,0.00,,BKN300,0.00,VWS V14.00,2013-09-04 18:15:00,
2013-09-04 13:20:00,98.8,32.8,29.00,SE,145,0.0,0.0,10,0.00,,BKN300,0.00,VWS V14.00,2013-09-04 18:20:00,
2013-09-04 13:25:00,99.7,33.5,29.00,SE,136,0.0,4.9,10,0.00,,BKN300,0.00,VWS V14.00,2013-09-04 18:25:00,
2013-09-04 13:30:00,100.4,34.0,29.00,SE,130,4.0,4.0,10,0.00,,BKN300,0.00,VWS V14.00,2013-09-04 18:30:00,
2013-09-04 13:35:00,102.0,35.3,29.00,SE,125,3.1,5.4,10,0.00,,BKN300,0.00,VWS V14.00,2013-09-04 18:35:00,
2013-09-04 13:40:00,101.3,34.7,29.00,WNW,290,0.0,0.0,10,0.00,,BKN300,0.00,VWS V14.00,2013-09-04 18:40:00,
2013-09-04 13:45:00,102.2,32.8,29.00,SE,129,3.1,3.6,9,0.00,,BKN300,0.00,VWS V14.00,2013-09-04 18:45:00,
2013-09-04 13:50:00,98.4,34.9,29.00,WSW,256,3.1,3.6,11,0.00,,BKN300,0.00,VWS V14.00,2013-09-04 18:50:00,
2013-09-04 13:55:00,97.9,34.5,29.00,SW,228,6.3,6.3,11,0.00,,BKN300,0.00,VWS V14.00,2013-09-04 18:55:00,
2013-09-04 14:00:00,99.9,33.6,29.00,SSW,203,0.0,0.0,10,0.00,,BKN300,0.00,VWS V14.00,2013-09-04 19:00:00,
2013-09-04 14:05:00,99.9,33.6,29.00,SE,137,0.0,4.0,10,0.00,,BKN300,0.00,VWS V14.00,2013-09-04 19:05:00,
2013-09-04 14:10:00,100.9,34.5,29.00,West,259,3.1,3.1,10,0.00,,BKN300,0.00,VWS V14.00,2013-09-04 19:10:00,
2013-09-04 14:15:00,99.5,33.4,29.00,SW,221,2.7,4.0,10,0.00,,BKN300,0.00,VWS V14.00,2013-09-04 19:15:00,
2013-09-04 14:20:00,99.5,33.4,29.00,SE,126,3.1,3.1,10,0.00,,BKN300,0.00,VWS V14.00,2013-09-04 19:20:00,
2013-09-04 14:25:00,100.8,34.3,29.00,ESE,123,0.0,3.1,10,0.00,,BKN300,0.00,VWS V14.00,2013-09-04 19:25:00,
2013-09-04 14:30:00,100.9,34.5,28.97,East,94,0.0,0.0,10,0.00,,BKN300,0.00,VWS V14.00,2013-09-04 19:30:00,
2013-09-04 14:35:00,100.6,34.2,28.97,SE,132,0.0,0.0,10,0.00,,BKN300,0.00,VWS V14.00,2013-09-04 19:35:00,
2013-09-04 14:40:00,100.4,34.0,28.97,SSW,202,0.0,3.1,10,0.00,,BKN300,0.00,VWS V14.00,2013-09-04 19:40:00,
2013-09-04 14:45:00,99.3,33.2,28.97,SW,224,2.7,5.4,10,0.00,,BKN300,0.00,VWS V14.00,2013-09-04 19:45:00,
2013-09-04 14:50:00,100.0,33.8,28.97,SW,225,0.0,0.0,10,0.00,,BKN300,0.00,VWS V14.00,2013-09-04 19:50:00,
2013-09-04 14:55:00,97.5,34.2,28.97,West,262,0.0,4.9,11,0.00,,BKN300,0.00,VWS V14.00,2013-09-04 19:55:00,
2013-09-04 15:00:00,95.2,32.5,28.97,SW,236,0.0,0.0,11,0.00,,BKN300,0.00,VWS V14.00,2013-09-04 20:00:00,
2013-09-04 15:05:00,98.2,34.8,28.97,East,92,2.7,4.0,11,0.00,,BKN300,0.00,VWS V14.00,2013-09-04 20:05:00,
2013-09-04 15:10:00,95.9,33.0,28.97,SE,146,0.0,0.0,11,0.00,,BKN300,0.00,VWS V14.00,2013-09-04 20:10:00,
2013-09-04 15:15:00,93.2,31.0,28.97,SW,218,4.9,5.8,11,0.00,,BKN300,0.00,VWS V14.00,2013-09-04 20:15:00,
2013-09-04 15:20:00,90.3,30.9,28.97,SW,224,0.0,2.2,12,0.00,,BKN300,0.00,VWS V14.00,2013-09-04 20:20:00,
2013-09-04 15:25:00,91.4,31.7,28.97,NW,309,2.7,3.1,12,0.00,,BKN300,0.00,VWS V14.00,2013-09-04 20:25:00,
2013-09-04 15:30:00,91.0,31.4,28.97,East,97,0.0,0.0,12,0.00,,BKN300,0.00,VWS V14.00,2013-09-04 20:30:00,
2013-09-04 15:35:00,89.8,30.5,28.97,WSW,250,2.7,8.1,12,0.00,,BKN300,0.00,VWS V14.00,2013-09-04 20:35:00,
2013-09-04 15:40:00,89.2,32.0,28.97,ESE,119,4.0,4.0,13,0.00,,BKN300,0.00,VWS V14.00,2013-09-04 20:40:00,
2013-09-04 15:45:00,89.6,30.3,28.97,West,259,4.0,4.0,12,0.00,,BKN300,0.00,VWS V14.00,2013-09-04 20:45:00,
2013-09-04 15:50:00,89.1,31.9,28.97,SW,234,6.3,8.7,13,0.00,,BKN300,0.00,VWS V14.00,2013-09-04 20:50:00,
2013-09-04 15:55:00,88.9,31.7,28.97,WSW,240,6.3,8.7,13,0.00,,BKN300,0.00,VWS V14.00,2013-09-04 20:55:00,
2013-09-04 16:00:00,89.1,31.9,28.97,West,273,0.0,0.0,13,0.00,,BKN300,0.00,VWS V14.00,2013-09-04 21:00:00,
2013-09-04 16:05:00,89.6,30.3,28.97,SW,230,0.0,2.7,12,0.00,,BKN300,0.00,VWS V14.00,2013-09-04 21:05:00,
2013-09-04 16:10:00,89.1,31.9,28.97,SW,235,2.2,4.0,13,0.00,,BKN300,0.00,VWS V14.00,2013-09-04 21:10:00,
2013-09-04 16:15:00,91.0,31.4,28.97,East,95,0.0,4.0,12,0.00,,BKN300,0.00,VWS V14.00,2013-09-04 21:15:00,
2013-09-04 16:20:00,92.1,32.3,28.97,SE,140,0.0,0.0,12,0.00,,BKN300,0.00,VWS V14.00,2013-09-04 21:20:00,
2013-09-04 16:25:00,92.1,32.3,28.97,SE,133,2.7,3.6,12,0.00,,BKN300,0.00,VWS V14.00,2013-09-04 21:25:00,
2013-09-04 16:30:00,91.4,31.7,28.97,SE,131,0.0,0.0,12,0.00,,BKN300,0.00,VWS V14.00,2013-09-04 21:30:00,
2013-09-04 16:35:00,90.3,30.9,28.97,West,261,0.0,5.4,12,0.00,,BKN300,0.00,VWS V14.00,2013-09-04 21:35:00,
2013-09-04 16:40:00,89.6,30.3,28.97,SSW,210,0.0,0.0,12,0.00,,BKN300,0.00,VWS V14.00,2013-09-04 21:40:00,
2013-09-04 16:45:00,89.1,31.9,28.97,NW,309,0.0,3.1,13,0.00,,BKN300,0.00,VWS V14.00,2013-09-04 21:45:00,
2013-09-04 16:50:00,88.7,31.6,28.97,NW,309,0.0,0.0,13,0.00,,BKN300,0.00,VWS V14.00,2013-09-04 21:50:00,
2013-09-04 16:55:00,88.7,31.6,28.97,SW,224,2.2,5.8,13,0.00,,BKN300,0.00,VWS V14.00,2013-09-04 21:55:00,
2013-09-04 17:00:00,88.7,31.6,28.97,SW,229,0.0,0.0,13,0.00,,BKN300,0.00,VWS V14.00,2013-09-04 22:00:00,
2013-09-04 17:05:00,88.7,31.6,28.97,SE,131,2.7,3.1,13,0.00,,BKN300,0.00,VWS V14.00,2013-09-04 22:05:00,
2013-09-04 17:10:00,88.7,31.6,28.97,ESE,122,0.0,0.0,13,0.00,,BKN300,0.00,VWS V14.00,2013-09-04 22:10:00,
2013-09-04 17:15:00,88.5,31.5,28.97,ESE,122,0.0,0.0,13,0.00,,BKN300,0.00,VWS V14.00,2013-09-04 22:15:00,
2013-09-04 17:20:00,88.5,31.5,28.97,SW,221,0.0,2.7,13,0.00,,BKN300,0.00,VWS V14.00,2013-09-04 22:20:00,
2013-09-04 17:25:00,88.7,31.6,28.97,WSW,242,0.0,3.1,13,0.00,,BKN300,0.00,VWS V14.00,2013-09-04 22:25:00,
2013-09-04 17:30:00,88.9,31.7,28.97,NE,42,0.0,0.0,13,0.00,,BKN300,0.00,VWS V14.00,2013-09-04 22:30:00,
2013-09-04 17:35:00,89.2,32.0,28.97,NE,42,0.0,0.0,13,0.00,,BKN300,0.00,VWS V14.00,2013-09-04 22:35:00,
2013-09-04 17:40:00,89.4,32.2,28.97,SE,130,2.7,2.7,13,0.00,,BKN300,0.00,VWS V14.00,2013-09-04 22:40:00,
2013-09-04 17:45:00,89.6,30.3,28.94,SE,129,0.0,3.6,12,0.00,,BKN300,0.00,VWS V14.00,2013-09-04 22:45:00,
2013-09-04 17:50:00,89.6,30.3,28.94,SE,125,0.0,0.0,12,0.00,,BKN300,0.00,VWS V14.00,2013-09-04 22:50:00,
2013-09-04 17:55:00,89.6,30.3,28.94,WSW,242,2.2,4.0,12,0.00,,BKN300,0.00,VWS V14.00,2013-09-04 22:55:00,
2013-09-04 18:00:00,89.2,32.0,28.94,WSW,254,0.0,0.0,13,0.00,,BKN300,0.00,VWS V14.00,2013-09-04 23:00:00,
2013-09-04 18:05:00,88.9,31.7,28.94,WNW,300,0.0,0.0,13,0.00,,BKN300,0.00,VWS V14.00,2013-09-04 23:05:00,
2013-09-04 18:10:00,88.7,31.6,28.94,WNW,286,0.0,0.0,13,0.00,,BKN300,0.00,VWS V14.00,2013-09-04 23:10:00,
2013-09-04 18:15:00,88.5,31.5,28.94,WNW,286,0.0,0.0,13,0.00,,BKN300,0.00,VWS V14.00,2013-09-04 23:15:00,
2013-09-04 18:20:00,88.2,31.2,28.94,WNW,286,0.0,0.0,13,0.00,,BKN300,0.00,VWS V14.00,2013-09-04 23:20:00,
2013-09-04 18:25:00,87.8,30.9,28.94,WNW,286,0.0,0.0,13,0.00,,BKN300,0.00,VWS V14.00,2013-09-04 23:25:00,
2013-09-04 18:30:00,87.4,30.6,28.94,WNW,286,0.0,0.0,13,0.00,,BKN300,0.00,VWS V14.00,2013-09-04 23:30:00,
2013-09-04 18:35:00,87.3,30.5,28.94,WNW,286,0.0,0.0,13,0.00,,BKN300,0.00,VWS V14.00,2013-09-04 23:35:00,
2013-09-04 18:40:00,87.1,35.5,28.94,WNW,286,0.0,0.0,16,0.00,,BKN300,0.00,VWS V14.00,2013-09-04 23:40:00,
2013-09-04 18:45:00,86.4,34.9,28.94,WNW,286,0.0,0.0,16,0.00,,BKN300,0.00,VWS V14.00,2013-09-04 23:45:00,
2013-09-04 18:50:00,85.5,34.2,28.94,WNW,286,0.0,0.0,16,0.00,,BKN300,0.00,VWS V14.00,2013-09-04 23:50:00,
2013-09-04 18:55:00,84.6,36.4,28.94,WNW,286,0.0,0.0,18,0.00,,BKN300,0.00,VWS V14.00,2013-09-04 23:55:00,
2013-09-04 19:00:00,83.7,37.1,28.94,WNW,286,0.0,0.0,19,0.00,,BKN300,0.00,VWS V14.00,2013-09-05 00:00:00,
2013-09-04 19:05:00,82.9,36.5,28.94,WNW,286,0.0,0.0,19,0.00,,BKN300,0.00,VWS V14.00,2013-09-05 00:05:00,
2013-09-04 19:10:00,82.0,38.3,28.94,WNW,286,0.0,0.0,21,0.00,,BKN300,0.00,VWS V14.00,2013-09-05 00:10:00,
2013-09-04 19:15:00,81.3,37.7,28.97,WNW,286,0.0,0.0,21,0.00,,BKN300,0.00,VWS V14.00,2013-09-05 00:15:00,
2013-09-04 19:20:00,80.4,38.1,28.97,WNW,286,0.0,0.0,22,0.00,,BKN300,0.00,VWS V14.00,2013-09-05 00:20:00,
2013-09-04 19:25:00,79.9,38.8,28.97,WNW,286,0.0,0.0,23,0.00,,BKN300,0.00,VWS V14.00,2013-09-05 00:25:00,
2013-09-04 19:30:00,79.0,38.1,28.97,WNW,286,0.0,0.0,23,0.00,,BKN300,0.00,VWS V14.00,2013-09-05 00:30:00,
2013-09-04 19:35:00,78.4,38.7,28.97,WNW,286,0.0,0.0,24,0.00,,BKN300,0.00,VWS V14.00,2013-09-05 00:35:00,
2013-09-04 19:40:00,77.9,39.3,28.97,WNW,286,0.0,0.0,25,0.00,,BKN300,0.00,VWS V14.00,2013-09-05 00:40:00,
2013-09-04 19:45:00,77.5,40.0,28.97,WNW,286,0.0,0.0,26,0.00,,BKN300,0.00,VWS V14.00,2013-09-05 00:45:00,
2013-09-04 19:50:00,77.2,41.6,28.97,WNW,286,0.0,0.0,28,0.00,,BKN300,0.00,VWS V14.00,2013-09-05 00:50:00,
2013-09-04 19:55:00,76.8,41.3,28.97,WNW,286,0.0,0.0,28,0.00,,BKN300,0.00,VWS V14.00,2013-09-05 00:55:00,
2013-09-04 20:00:00,76.3,41.7,28.97,WNW,286,0.0,0.0,29,0.00,,BKN300,0.00,VWS V14.00,2013-09-05 01:00:00,
2013-09-04 20:05:00,75.9,43.1,28.97,WNW,286,0.0,0.0,31,0.00,,BKN300,0.00,VWS V14.00,2013-09-05 01:05:00,
2013-09-04 20:10:00,75.7,43.0,28.97,WNW,286,0.0,0.0,31,0.00,,BKN300,0.00,VWS V14.00,2013-09-05 01:10:00,
2013-09-04 20:15:00,75.2,42.5,28.97,WNW,286,0.0,0.0,31,0.00,,BKN300,0.00,VWS V14.00,2013-09-05 01:15:00,
2013-09-04 20:20:00,74.8,43.0,28.97,WNW,286,0.0,0.0,32,0.00,,BKN300,0.00,VWS V14.00,2013-09-05 01:20:00,
2013-09-04 20:25:00,74.7,42.9,28.97,WNW,286,0.0,0.0,32,0.00,,BKN300,0.00,VWS V14.00,2013-09-05 01:25:00,
2013-09-04 20:30:00,74.5,43.5,28.97,WNW,286,0.0,0.0,33,0.00,,BKN300,0.00,VWS V14.00,2013-09-05 01:30:00,
2013-09-04 20:35:00,74.1,43.2,28.97,WNW,286,0.0,0.0,33,0.00,,BKN300,0.00,VWS V14.00,2013-09-05 01:35:00,
2013-09-04 20:40:00,73.8,43.7,28.97,WNW,286,0.0,0.0,34,0.00,,BKN300,0.00,VWS V14.00,2013-09-05 01:40:00,
2013-09-04 20:45:00,73.8,44.4,28.97,WNW,286,0.0,0.0,35,0.00,,BKN300,0.00,VWS V14.00,2013-09-05 01:45:00,
2013-09-04 20:50:00,73.8,44.4,28.97,WNW,286,0.0,0.0,35,0.00,,BKN300,0.00,VWS V14.00,2013-09-05 01:50:00,
2013-09-04 20:55:00,73.8,45.2,28.97,WNW,286,0.0,0.0,36,0.00,,BKN300,0.00,VWS V14.00,2013-09-05 01:55:00,
2013-09-04 21:00:00,73.8,45.2,28.97,WNW,286,0.0,0.0,36,0.00,,BKN300,0.00,VWS V14.00,2013-09-05 02:00:00,
2013-09-04 21:05:00,73.6,45.7,28.97,WNW,286,0.0,0.0,37,0.00,,BKN300,0.00,VWS V14.00,2013-09-05 02:05:00,
2013-09-04 21:10:00,73.9,46.0,28.97,WNW,286,0.0,0.0,37,0.00,,BKN300,0.00,VWS V14.00,2013-09-05 02:10:00,
2013-09-04 21:15:00,73.6,45.7,28.97,WNW,286,0.0,0.0,37,0.00,,BKN300,0.00,VWS V14.00,2013-09-05 02:15:00,
2013-09-04 21:20:00,73.2,45.4,28.97,WNW,286,0.0,0.0,37,0.00,,BKN300,0.00,VWS V14.00,2013-09-05 02:20:00,
2013-09-04 21:25:00,73.0,45.2,28.97,WNW,286,0.0,0.0,37,0.00,,BKN300,0.00,VWS V14.00,2013-09-05 02:25:00,
2013-09-04 21:30:00,72.7,45.6,28.97,WNW,286,0.0,0.0,38,0.00,,BKN300,0.00,VWS V14.00,2013-09-05 02:30:00,
2013-09-04 21:35:00,72.7,47.7,28.97,WNW,286,0.0,0.0,41,0.00,,BKN300,0.00,VWS V14.00,2013-09-05 02:35:00,
2013-09-04 21:40:00,72.5,47.5,28.97,WNW,286,0.0,0.0,41,0.00,,BKN300,0.00,VWS V14.00,2013-09-05 02:40:00,
2013-09-04 21:45:00,72.1,47.8,28.97,WNW,286,0.0,0.0,42,0.00,,BKN300,0.00,VWS V14.00,2013-09-05 02:45:00,
2013-09-04 21:50:00,72.1,47.8,28.97,WNW,286,0.0,0.0,42,0.00,,BKN300,0.00,VWS V14.00,2013-09-05 02:50:00,
2013-09-04 21:55:00,72.0,47.0,28.97,WNW,286,0.0,0.0,41,0.00,,BKN300,0.00,VWS V14.00,2013-09-05 02:55:00,
2013-09-04 22:00:00,71.6,46.7,29.00,WNW,286,0.0,0.0,41,0.00,,BKN250,0.00,VWS V14.00,2013-09-05 03:00:00,
2013-09-04 22:05:00,71.1,46.8,29.00,WNW,286,0.0,0.0,42,0.00,,BKN250,0.00,VWS V14.00,2013-09-05 03:05:00,
2013-09-04 22:10:00,70.9,47.3,29.00,WNW,286,0.0,0.0,43,0.00,,BKN250,0.00,VWS V14.00,2013-09-05 03:10:00,
2013-09-04 22:15:00,71.1,51.0,29.00,WNW,286,0.0,0.0,49,0.00,,BKN250,0.00,VWS V14.00,2013-09-05 03:15:00,
2013-09-04 22:20:00,70.9,50.2,29.00,WNW,286,0.0,0.0,48,0.00,,BKN250,0.00,VWS V14.00,2013-09-05 03:20:00,
2013-09-04 22:25:00,70.7,50.1,29.00,WNW,286,0.0,0.0,48,0.00,,BKN250,0.00,VWS V14.00,2013-09-05 03:25:00,
2013-09-04 22:30:00,70.7,50.1,29.00,WNW,286,0.0,0.0,48,0.00,,BKN250,0.00,VWS V14.00,2013-09-05 03:30:00,
2013-09-04 22:35:00,70.7,51.2,29.00,WNW,286,0.0,0.0,50,0.00,,BKN250,0.00,VWS V14.00,2013-09-05 03:35:00,
2013-09-04 22:40:00,70.5,51.0,29.00,WNW,286,0.0,0.0,50,0.00,,BKN250,0.00,VWS V14.00,2013-09-05 03:40:00,
2013-09-04 22:45:00,70.3,50.8,29.00,WNW,286,0.0,0.0,50,0.00,,BKN250,0.00,VWS V14.00,2013-09-05 03:45:00,
2013-09-04 22:50:00,69.8,50.3,29.00,WNW,286,0.0,0.0,50,0.00,,BKN250,0.00,VWS V14.00,2013-09-05 03:50:00,
2013-09-04 22:55:00,69.6,50.7,29.00,WNW,286,0.0,0.0,51,0.00,,BKN250,0.00,VWS V14.00,2013-09-05 03:55:00,
2013-09-04 23:00:00,69.3,49.8,29.00,WNW,286,0.0,0.0,50,0.00,,SCT250,0.00,VWS V14.00,2013-09-05 04:00:00,
2013-09-04 23:01:00,69.3,49.8,29.00,WNW,286,0.0,0.0,50,0.00,,SCT250,0.00,VWS V14.00,2013-09-05 04:01:00,
2013-09-04 23:06:00,69.3,50.9,29.00,WNW,286,0.0,0.0,52,0.00,,SCT250,0.00,VWS V14.00,2013-09-05 04:06:00,
2013-09-04 23:11:00,69.1,51.2,29.00,WNW,286,0.0,0.0,53,0.00,,SCT250,0.00,VWS V14.00,2013-09-05 04:11:00,
2013-09-04 23:16:00,68.9,51.6,29.00,WNW,286,0.0,0.0,54,0.00,,SCT250,0.00,VWS V14.00,2013-09-05 04:16:00,
2013-09-04 23:21:00,68.5,50.8,29.00,WNW,286,0.0,0.0,53,0.00,,SCT250,0.00,VWS V14.00,2013-09-05 04:21:00,
2013-09-04 23:26:00,68.7,52.4,29.00,WNW,286,0.0,0.0,56,0.00,,SCT250,0.00,VWS V14.00,2013-09-05 04:26:00,
2013-09-04 23:31:00,68.7,52.9,29.00,WNW,286,0.0,0.0,57,0.00,,SCT250,0.00,VWS V14.00,2013-09-05 04:31:00,
2013-09-04 23:36:00,68.7,52.9,29.00,WNW,286,0.0,0.0,57,0.00,,SCT250,0.00,VWS V14.00,2013-09-05 04:36:00,
2013-09-04 23:41:00,68.5,53.2,29.00,WNW,286,0.0,0.0,58,0.00,,SCT250,0.00,VWS V14.00,2013-09-05 04:41:00,
2013-09-04 23:46:00,68.4,53.0,29.00,WNW,286,0.0,0.0,58,0.00,,SCT250,0.00,VWS V14.00,2013-09-05 04:46:00,
2013-09-04 23:51:00,68.0,52.7,29.00,WNW,286,0.0,0.0,58,0.00,,SCT250,0.00,VWS V14.00,2013-09-05 04:51:00,
2013-09-04 23:56:00,67.8,52.5,29.00,WNW,286,0.0,0.0,58,0.00,,SCT250,0.00,VWS V14.00,2013-09-05 04:56:00,